| time (UTC) | temp F | wind direction | speed MPH | gust MPH | rain 1hr in | rain 24hr in | rain mn in | humidity % | barometer mb |
| 20260902104531 | 68 | 277 | 3.0 | 11.0 | 0.00 | 0.00 | 0.00 | 72 | 1019.1 |
| 20260902103042 | 68 | 246 | 4.0 | 9.0 | 0.00 | 0.00 | 0.00 | 72 | 1019.2 |
| 20260902101543 | 67 | 239 | 3.0 | 6.0 | 0.00 | 0.00 | 0.00 | 74 | 1019.3 |
| 20260902100033 | 66 | 0 | 1.0 | 3.0 | 0.00 | 0.00 | 0.00 | 80 | 1019.2 |
| 20260902094533 | 65 | 206 | 0.0 | 2.0 | 0.00 | 0.00 | 0.00 | 80 | 1019.3 |
| 20260902093041 | 65 | 0 | 0.0 | 1.0 | 0.00 | 0.00 | 0.00 | 80 | 1019.3 |
| 20260902091539 | 63 | 0 | 0.0 | 0.0 | 0.00 | 0.00 | 0.00 | 84 | 1019.1 |
| 20260902090033 | 62 | 0 | 0.0 | 0.0 | 0.00 | 0.00 | 0.00 | 83 | 1019.3 |
| 20260902084546 | 61 | 0 | 0.0 | 0.0 | 0.00 | 0.00 | 0.00 | 87 | 1019.4 |
| 20260902083041 | 60 | 0 | 0.0 | 2.0 | 0.00 | 0.00 | 0.00 | 88 | 1019.4 |
| 20260902081533 | 60 | 0 | 0.0 | 2.0 | 0.00 | 0.00 | 0.00 | 89 | 1019.4 |
| 20260902080032 | 59 | 0 | 0.0 | 2.0 | 0.00 | 0.00 | 0.00 | 90 | 1019.4 |
| 20260902074532 | 59 | 0 | 0.0 | 0.0 | 0.00 | 0.00 | 0.00 | 93 | 1019.4 |
| 20260902073031 | 58 | 0 | 0.0 | 1.0 | 0.00 | 0.00 | 0.00 | 95 | 1019.3 |
| 20260902071537 | 57 | 0 | 0.0 | 2.0 | 0.00 | 0.00 | 0.00 | 95 | 1019.3 |
| 20260902070034 | 56 | 0 | 0.0 | 2.0 | 0.00 | 0.00 | 0.00 | 96 | 1019.3 |
| 20260902064531 | 56 | 0 | 0.0 | 0.0 | 0.00 | 0.00 | 0.00 | 96 | 1019.3 |
| 20260902063034 | 55 | 0 | 0.0 | 2.0 | 0.00 | 0.00 | 0.00 | 96 | 1019.3 |
| 20260902061543 | 54 | 0 | 0.0 | 0.0 | 0.00 | 0.00 | 0.00 | 96 | 1019.3 |
| 20260902060034 | 53 | 0 | 0.0 | 0.0 | 0.00 | 0.00 | 0.00 | 96 | 1019.5 |
| 20260902054534 | 53 | 0 | 0.0 | 0.0 | 0.00 | 0.00 | 0.00 | 96 | 1019.3 |
| 20260902053033 | 53 | 0 | 0.0 | 0.0 | 0.00 | 0.00 | 0.00 | 96 | 1019.3 |
| 20260902051532 | 52 | 0 | 0.0 | 0.0 | 0.00 | 0.00 | 0.00 | 96 | 1019.4 |
| 20260902050033 | 52 | 0 | 0.0 | 0.0 | 0.00 | 0.00 | 0.00 | 96 | 1019.3 |
| 20260902044543 | 51 | 0 | 0.0 | 0.0 | 0.00 | 0.00 | 0.00 | 96 | 1019.3 |
| 20260902043032 | 51 | 0 | 0.0 | 1.0 | 0.00 | 0.00 | 0.00 | 95 | 1019.3 |
| 20260902041533 | 51 | 0 | 0.0 | 0.0 | 0.00 | 0.00 | 0.00 | 96 | 1019.5 |
| 20260902040031 | 50 | 0 | 0.0 | 1.0 | 0.00 | 0.00 | 0.00 | 95 | 1019.3 |
| 20260902034533 | 50 | 0 | 0.0 | 0.0 | 0.00 | 0.00 | 0.00 | 95 | 1019.5 |
| 20260902033032 | 50 | 0 | 0.0 | 0.0 | 0.00 | 0.00 | 0.00 | 95 | 1019.5 |
| 20260902031534 | 50 | 0 | 0.0 | 0.0 | 0.00 | 0.00 | 0.00 | 95 | 1019.6 |
| 20260902030033 | 50 | 0 | 0.0 | 0.0 | 0.00 | 0.00 | 0.00 | 95 | 1019.7 |
| 20260902024532 | 50 | 0 | 0.0 | 0.0 | 0.00 | 0.00 | 0.00 | 95 | 1019.6 |
| 20260902023032 | 50 | 0 | 0.0 | 0.0 | 0.00 | 0.00 | 0.00 | 95 | 1019.7 |
| 20260902021547 | 50 | 0 | 0.0 | 0.0 | 0.00 | 0.00 | 0.00 | 95 | 1019.6 |
| 20260902020032 | 51 | 0 | 0.0 | 0.0 | 0.00 | 0.00 | 0.00 | 95 | 1019.5 |
| 20260902014540 | 51 | 0 | 0.0 | 0.0 | 0.00 | 0.00 | 0.00 | 95 | 1019.4 |
| 20260902013032 | 51 | 0 | 0.0 | 0.0 | 0.00 | 0.00 | 0.00 | 94 | 1019.3 |
| 20260902011532 | 51 | 0 | 0.0 | 0.0 | 0.00 | 0.00 | 0.00 | 94 | 1019.3 |
| 20260902010032 | 52 | 0 | 0.0 | 0.0 | 0.00 | 0.00 | 0.00 | 94 | 1019.4 |
| 20260902004532 | 52 | 0 | 0.0 | 0.0 | 0.00 | 0.00 | 0.00 | 94 | 1019.5 |
| 20260902003039 | 52 | 0 | 0.0 | 0.0 | 0.00 | 0.00 | 0.00 | 94 | 1019.7 |
| 20260902001531 | 52 | 0 | 0.0 | 0.0 | 0.00 | 0.00 | 0.00 | 94 | 1019.8 |
| 20260902000031 | 52 | 0 | 0.0 | 0.0 | 0.00 | 0.00 | 0.00 | 94 | 1019.7 |
| 20260901234533 | 53 | 0 | 0.0 | 0.0 | 0.00 | 0.00 | 0.00 | 94 | 1019.8 |
| 20260901233032 | 53 | 0 | 0.0 | 0.0 | 0.00 | 0.00 | 0.00 | 94 | 1019.7 |
| 20260901231530 | 53 | 0 | 0.0 | 0.0 | 0.00 | 0.00 | 0.00 | 94 | 1019.7 |
| 20260901230033 | 53 | 0 | 0.0 | 0.0 | 0.00 | 0.00 | 0.00 | 93 | 1019.7 |
| 20260901224533 | 54 | 0 | 0.0 | 0.0 | 0.00 | 0.00 | 0.00 | 93 | 1019.6 |
| 20260901223041 | 54 | 0 | 0.0 | 0.0 | 0.00 | 0.00 | 0.00 | 93 | 1019.5 |
| 20260901221534 | 55 | 0 | 0.0 | 0.0 | 0.00 | 0.00 | 0.00 | 93 | 1019.7 |
| 20260901220036 | 56 | 0 | 0.0 | 0.0 | 0.00 | 0.00 | 0.00 | 93 | 1019.6 |
| 20260901214535 | 56 | 0 | 0.0 | 0.0 | 0.00 | 0.00 | 0.00 | 93 | 1019.5 |
| 20260901213053 | 56 | 0 | 0.0 | 0.0 | 0.00 | 0.00 | 0.00 | 92 | 1019.6 |
| 20260901211531 | 56 | 0 | 0.0 | 0.0 | 0.00 | 0.00 | 0.00 | 92 | 1019.5 |
| 20260901210033 | 57 | 0 | 0.0 | 0.0 | 0.00 | 0.00 | 0.00 | 91 | 1019.4 |
| 20260901204538 | 57 | 0 | 0.0 | 1.0 | 0.00 | 0.00 | 0.00 | 91 | 1019.5 |
| 20260901203034 | 58 | 0 | 0.0 | 0.0 | 0.00 | 0.00 | 0.00 | 90 | 1019.5 |
| 20260901201531 | 59 | 0 | 0.0 | 2.0 | 0.00 | 0.00 | 0.00 | 91 | 1019.4 |
| 20260901200031 | 59 | 0 | 0.0 | 3.0 | 0.00 | 0.00 | 0.00 | 90 | 1019.3 |
| 20260901194534 | 59 | 0 | 0.0 | 2.0 | 0.00 | 0.00 | 0.00 | 89 | 1019.2 |
| 20260901193032 | 60 | 0 | 0.0 | 2.0 | 0.00 | 0.00 | 0.00 | 88 | 1019.2 |
| 20260901191534 | 60 | 242 | 1.0 | 3.0 | 0.00 | 0.00 | 0.00 | 88 | 1019.1 |
| 20260901190033 | 60 | 242 | 1.0 | 2.0 | 0.00 | 0.00 | 0.00 | 88 | 1019.0 |
| 20260901184540 | 61 | 242 | 0.0 | 2.0 | 0.00 | 0.00 | 0.00 | 87 | 1018.8 |
| 20260901183037 | 62 | 242 | 0.0 | 5.0 | 0.00 | 0.00 | 0.00 | 85 | 1018.5 |
| 20260901181535 | 63 | 242 | 3.0 | 5.0 | 0.00 | 0.00 | 0.00 | 84 | 1018.2 |
| 20260901180038 | 63 | 243 | 3.0 | 5.0 | 0.00 | 0.00 | 0.00 | 84 | 1018.2 |
| 20260901174534 | 63 | 245 | 2.0 | 5.0 | 0.00 | 0.03 | 0.00 | 84 | 1018.2 |
| 20260901173031 | 63 | 245 | 3.0 | 4.0 | 0.00 | 0.03 | 0.00 | 82 | 1018.1 |
| 20260901171539 | 64 | 248 | 2.0 | 8.0 | 0.00 | 0.03 | 0.00 | 82 | 1018.0 |
| 20260901170035 | 64 | 246 | 3.0 | 9.0 | 0.00 | 0.03 | 0.00 | 80 | 1018.1 |
| 20260901164533 | 65 | 248 | 3.0 | 7.0 | 0.00 | 0.03 | 0.00 | 79 | 1018.0 |
| 20260901163031 | 65 | 265 | 4.0 | 7.0 | 0.00 | 0.03 | 0.00 | 79 | 1018.0 |
| 20260901161531 | 65 | 271 | 1.0 | 4.0 | 0.00 | 0.03 | 0.00 | 78 | 1017.9 |
| 20260901160038 | 65 | 277 | 3.0 | 9.0 | 0.00 | 0.03 | 0.00 | 77 | 1017.8 |
| 20260901154532 | 65 | 0 | 2.0 | 6.0 | 0.00 | 0.03 | 0.00 | 79 | 1017.9 |
| 20260901153031 | 65 | 254 | 4.0 | 9.0 | 0.00 | 0.03 | 0.00 | 80 | 1017.8 |
| 20260901151533 | 65 | 277 | 3.0 | 9.0 | 0.00 | 0.03 | 0.00 | 82 | 1017.7 |
| 20260901150036 | 64 | 269 | 3.0 | 9.0 | 0.00 | 0.03 | 0.00 | 87 | 1017.9 |
| 20260901144534 | 64 | 299 | 3.0 | 9.0 | 0.00 | 0.11 | 0.00 | 86 | 1017.8 |
| 20260901143034 | 68 | 292 | 4.0 | 14.0 | 0.00 | 0.11 | 0.00 | 73 | 1017.8 |
| 20260901141537 | 70 | 276 | 3.0 | 11.0 | 0.00 | 0.11 | 0.00 | 64 | 1017.3 |
| 20260901140034 | 70 | 277 | 6.0 | 11.0 | 0.00 | 0.11 | 0.00 | 64 | 1017.4 |
| 20260901134534 | 70 | 253 | 5.0 | 11.0 | 0.00 | 0.11 | 0.00 | 63 | 1017.4 |
| 20260901133035 | 71 | 274 | 3.0 | 10.0 | 0.00 | 0.11 | 0.00 | 65 | 1017.4 |
| 20260901131534 | 72 | 279 | 4.0 | 12.0 | 0.00 | 0.11 | 0.00 | 61 | 1017.3 |
| 20260901130037 | 74 | 278 | 4.0 | 14.0 | 0.00 | 0.11 | 0.00 | 61 | 1017.3 |
| 20260901124533 | 73 | 259 | 6.0 | 13.0 | 0.00 | 0.11 | 0.00 | 62 | 1017.3 |
| 20260901123038 | 71 | 248 | 8.0 | 13.0 | 0.00 | 0.11 | 0.00 | 64 | 1017.4 |
| 20260901121537 | 71 | 254 | 4.0 | 9.0 | 0.00 | 0.11 | 0.00 | 64 | 1017.4 |
| 20260901120034 | 70 | 274 | 6.0 | 12.0 | 0.00 | 0.11 | 0.00 | 67 | 1017.5 |
| 20260901114545 | 70 | 257 | 5.0 | 13.0 | 0.00 | 0.11 | 0.00 | 67 | 1017.6 |
| 20260901113035 | 70 | 276 | 5.0 | 10.0 | 0.00 | 0.11 | 0.00 | 67 | 1017.6 |
| 20260901111533 | 70 | 306 | 3.0 | 12.0 | 0.00 | 0.11 | 0.00 | 68 | 1017.6 |
| 20260901110035 | 71 | 279 | 6.0 | 13.0 | 0.00 | 0.11 | 0.00 | 67 | 1017.5 |